Time,TemperatureF,DewpointF,PressureIn,WindDirection,WindDirectionDegrees,WindSpeedMPH,WindSpeedGustMPH,Humidity,HourlyPrecipIn,Conditions,Clouds,dailyrainin,SoftwareType,DateUTC
2013-02-11 00:00:00,71.4,61.5,30.15,East,90,2.9,3.8,71,0.00,,---,0.00,VWS V14.01,2013-02-11 05:00:00,
2013-02-11 00:05:00,71.4,61.5,30.15,ESE,112,2.0,5.8,71,0.00,,---,0.00,VWS V14.01,2013-02-11 05:05:00,
2013-02-11 00:10:00,71.4,61.5,30.15,NE,45,3.1,3.4,71,0.00,,---,0.00,VWS V14.01,2013-02-11 05:10:00,
2013-02-11 00:15:00,71.6,61.3,30.15,East,90,4.3,4.3,70,0.00,,---,0.00,VWS V14.01,2013-02-11 05:15:00,
2013-02-11 00:20:00,71.8,61.5,30.15,SE,135,4.0,4.0,70,0.00,,---,0.00,VWS V14.01,2013-02-11 05:20:00,
2013-02-11 00:25:00,71.8,61.5,30.15,ESE,112,4.0,4.0,70,0.00,,---,0.00,VWS V14.01,2013-02-11 05:25:00,
2013-02-11 00:30:00,71.8,61.1,30.15,East,90,3.1,3.1,69,0.00,,---,0.00,VWS V14.01,2013-02-11 05:30:00,
2013-02-11 00:35:00,71.8,60.7,30.15,ENE,68,1.6,4.9,68,0.00,,---,0.00,VWS V14.01,2013-02-11 05:35:00,
2013-02-11 00:40:00,71.8,60.7,30.15,East,90,4.0,4.0,68,0.00,,---,0.00,VWS V14.01,2013-02-11 05:40:00,
2013-02-11 00:45:00,71.8,61.1,30.15,ESE,112,2.5,2.5,69,0.00,,---,0.00,VWS V14.01,2013-02-11 05:45:00,
2013-02-11 00:50:00,71.6,61.3,30.15,SE,135,1.6,4.0,70,0.00,,---,0.00,VWS V14.01,2013-02-11 05:50:00,
2013-02-11 00:55:00,71.8,61.5,30.15,ESE,112,3.1,5.6,70,0.00,,---,0.00,VWS V14.01,2013-02-11 05:55:00,
2013-02-11 01:00:00,71.8,61.9,30.15,ESE,112,2.0,4.3,71,0.00,,---,0.00,VWS V14.01,2013-02-11 06:00:00,
2013-02-11 01:05:00,71.8,61.5,30.15,SW,225,2.5,4.0,70,0.00,,---,0.00,VWS V14.01,2013-02-11 06:05:00,
2013-02-11 01:10:00,71.8,61.5,30.15,SE,135,3.6,4.9,70,0.00,,---,0.00,VWS V14.01,2013-02-11 06:10:00,
2013-02-11 01:15:00,71.8,61.5,30.15,East,90,3.4,3.4,70,0.00,,---,0.00,VWS V14.01,2013-02-11 06:15:00,
2013-02-11 01:20:00,71.8,61.5,30.15,ESE,112,6.0,6.0,70,0.00,,---,0.00,VWS V14.01,2013-02-11 06:20:00,
2013-02-11 01:25:00,72.0,61.7,30.15,ESE,112,4.9,6.0,70,0.00,,---,0.00,VWS V14.01,2013-02-11 06:25:00,
2013-02-11 01:30:00,71.8,61.5,30.15,SSE,158,2.5,5.6,70,0.00,,---,0.00,VWS V14.01,2013-02-11 06:30:00,
2013-02-11 01:35:00,71.8,61.5,30.15,ESE,112,1.6,3.4,70,0.00,,---,0.00,VWS V14.01,2013-02-11 06:35:00,
2013-02-11 01:40:00,71.8,61.5,30.15,South,180,3.4,3.6,70,0.00,,---,0.00,VWS V14.01,2013-02-11 06:40:00,
2013-02-11 01:45:00,71.8,61.5,30.15,ESE,112,1.1,6.5,70,0.00,,---,0.00,VWS V14.01,2013-02-11 06:45:00,
2013-02-11 01:50:00,72.0,61.7,30.15,South,180,2.9,4.9,70,0.00,,---,0.00,VWS V14.01,2013-02-11 06:50:00,
2013-02-11 01:55:00,72.0,61.7,30.15,SSE,158,2.7,3.8,70,0.00,,---,0.00,VWS V14.01,2013-02-11 06:55:00,
2013-02-11 02:00:00,72.0,61.2,30.15,SE,135,5.6,5.6,69,0.00,,---,0.00,VWS V14.01,2013-02-11 07:00:00,
2013-02-11 02:05:00,72.0,61.2,30.15,SE,135,4.3,4.3,69,0.00,,---,0.00,VWS V14.01,2013-02-11 07:05:00,
2013-02-11 02:10:00,71.8,61.1,30.15,SSE,158,3.1,4.3,69,0.00,,---,0.00,VWS V14.01,2013-02-11 07:10:00,
2013-02-11 02:15:00,71.8,60.7,30.15,South,180,6.3,6.3,68,0.00,,---,0.00,VWS V14.01,2013-02-11 07:15:00,
2013-02-11 02:20:00,71.6,60.5,30.15,East,90,4.3,4.3,68,0.00,,---,0.00,VWS V14.01,2013-02-11 07:20:00,
2013-02-11 02:25:00,71.6,60.5,30.15,East,90,3.1,4.0,68,0.00,,---,0.00,VWS V14.01,2013-02-11 07:25:00,
2013-02-11 02:30:00,71.6,60.5,30.15,ESE,112,2.9,2.9,68,0.00,,---,0.00,VWS V14.01,2013-02-11 07:30:00,
2013-02-11 02:35:00,71.4,60.7,30.15,ESE,112,4.5,4.5,69,0.00,,---,0.00,VWS V14.01,2013-02-11 07:35:00,
2013-02-11 02:40:00,71.2,60.6,30.15,East,90,2.5,5.4,69,0.00,,---,0.00,VWS V14.01,2013-02-11 07:40:00,
2013-02-11 02:45:00,71.2,60.6,30.15,ENE,68,2.9,4.0,69,0.00,,---,0.00,VWS V14.01,2013-02-11 07:45:00,
2013-02-11 02:50:00,71.1,60.4,30.12,SE,135,1.6,2.7,69,0.00,,---,0.00,VWS V14.01,2013-02-11 07:50:00,
2013-02-11 02:55:00,70.9,60.2,30.12,East,90,2.5,3.4,69,0.00,,---,0.00,VWS V14.01,2013-02-11 07:55:00,
2013-02-11 03:00:00,70.9,60.6,30.12,East,90,2.0,3.6,70,0.00,,---,0.00,VWS V14.01,2013-02-11 08:00:00,
2013-02-11 03:05:00,70.9,61.0,30.12,South,180,3.8,5.4,71,0.00,,---,0.00,VWS V14.01,2013-02-11 08:05:00,
2013-02-11 03:10:00,71.1,61.6,30.12,South,180,3.6,3.8,72,0.00,,---,0.00,VWS V14.01,2013-02-11 08:10:00,
2013-02-11 03:15:00,71.1,61.6,30.12,ESE,112,2.5,2.5,72,0.00,,---,0.00,VWS V14.01,2013-02-11 08:15:00,
2013-02-11 03:20:00,70.9,61.4,30.12,SE,135,9.8,9.8,72,0.00,,---,0.00,VWS V14.01,2013-02-11 08:20:00,
2013-02-11 03:25:00,70.9,61.4,30.12,East,90,2.2,3.1,72,0.00,,---,0.00,VWS V14.01,2013-02-11 08:25:00,
2013-02-11 03:30:00,70.7,61.2,30.12,South,180,2.7,2.7,72,0.00,,---,0.00,VWS V14.01,2013-02-11 08:30:00,
2013-02-11 03:35:00,70.7,61.2,30.12,East,90,2.9,7.4,72,0.00,,---,0.00,VWS V14.01,2013-02-11 08:35:00,
2013-02-11 03:40:00,70.7,60.8,30.12,East,90,1.6,3.4,71,0.00,,---,0.00,VWS V14.01,2013-02-11 08:40:00,
2013-02-11 03:45:00,70.7,60.8,30.12,ESE,112,4.3,4.3,71,0.00,,---,0.00,VWS V14.01,2013-02-11 08:45:00,
2013-02-11 03:50:00,70.5,60.7,30.12,SE,135,0.0,5.4,71,0.00,,---,0.00,VWS V14.01,2013-02-11 08:50:00,
2013-02-11 03:55:00,70.7,60.5,30.12,SSE,158,1.6,3.6,70,0.00,,---,0.00,VWS V14.01,2013-02-11 08:55:00,
2013-02-11 04:00:00,70.5,60.3,30.12,SSE,158,2.9,4.0,70,0.00,,---,0.00,VWS V14.01,2013-02-11 09:00:00,
2013-02-11 04:05:00,70.5,60.3,30.12,SSE,158,3.6,4.3,70,0.00,,---,0.00,VWS V14.01,2013-02-11 09:05:00,
2013-02-11 04:10:00,70.3,60.1,30.12,SSE,158,3.1,3.1,70,0.00,,---,0.00,VWS V14.01,2013-02-11 09:10:00,
2013-02-11 04:15:00,70.3,60.1,30.12,SSE,158,0.0,1.6,70,0.00,,---,0.00,VWS V14.01,2013-02-11 09:15:00,
2013-02-11 04:20:00,70.2,59.9,30.12,South,180,1.1,2.2,70,0.00,,---,0.00,VWS V14.01,2013-02-11 09:20:00,
2013-02-11 04:25:00,70.2,59.9,30.12,ENE,68,2.5,3.8,70,0.00,,---,0.00,VWS V14.01,2013-02-11 09:25:00,
2013-02-11 04:30:00,70.2,59.9,30.12,SE,135,1.3,2.9,70,0.00,,---,0.00,VWS V14.01,2013-02-11 09:30:00,
2013-02-11 04:35:00,70.0,59.8,30.12,ESE,112,0.9,1.6,70,0.00,,---,0.00,VWS V14.01,2013-02-11 09:35:00,
2013-02-11 04:40:00,70.0,60.2,30.12,SSE,158,1.3,2.2,71,0.00,,---,0.00,VWS V14.01,2013-02-11 09:40:00,
2013-02-11 04:45:00,70.0,60.2,30.12,East,90,2.9,4.9,71,0.00,,---,0.00,VWS V14.01,2013-02-11 09:45:00,
2013-02-11 04:50:00,70.0,60.2,30.12,SSE,158,7.8,7.8,71,0.00,,---,0.00,VWS V14.01,2013-02-11 09:50:00,
2013-02-11 04:55:00,69.8,60.4,30.12,ESE,112,3.1,4.9,72,0.00,,---,0.00,VWS V14.01,2013-02-11 09:55:00,
2013-02-11 05:00:00,70.0,60.5,30.12,SE,135,0.0,1.6,72,0.00,,---,0.00,VWS V14.01,2013-02-11 10:00:00,
2013-02-11 05:05:00,69.8,60.4,30.12,ESE,112,2.0,2.0,72,0.00,,---,0.00,VWS V14.01,2013-02-11 10:05:00,
2013-02-11 05:10:00,69.8,60.4,30.12,East,90,2.7,2.9,72,0.00,,---,0.00,VWS V14.01,2013-02-11 10:10:00,
2013-02-11 05:15:00,69.8,60.8,30.12,ENE,68,2.5,2.7,73,0.00,,---,0.00,VWS V14.01,2013-02-11 10:15:00,
2013-02-11 05:20:00,69.8,60.8,30.12,East,90,3.1,3.1,73,0.00,,---,0.00,VWS V14.01,2013-02-11 10:20:00,
2013-02-11 05:25:00,69.8,60.8,30.12,East,90,2.5,4.0,73,0.00,,---,0.00,VWS V14.01,2013-02-11 10:25:00,
2013-02-11 05:30:00,69.8,60.8,30.12,ESE,112,1.6,1.6,73,0.00,,---,0.00,VWS V14.01,2013-02-11 10:30:00,
2013-02-11 05:35:00,69.6,61.0,30.12,ENE,68,2.7,2.9,74,0.00,,---,0.00,VWS V14.01,2013-02-11 10:35:00,
2013-02-11 05:40:00,69.8,61.2,30.12,ESE,112,3.1,3.1,74,0.00,,---,0.00,VWS V14.01,2013-02-11 10:40:00,
2013-02-11 05:45:00,69.8,61.2,30.12,East,90,1.3,5.4,74,0.00,,---,0.00,VWS V14.01,2013-02-11 10:45:00,
2013-02-11 05:50:00,70.0,61.3,30.09,SSE,158,3.6,3.6,74,0.00,,---,0.00,VWS V14.01,2013-02-11 10:50:00,
2013-02-11 05:55:00,70.2,61.9,30.09,NE,45,3.1,4.5,75,0.00,,---,0.00,VWS V14.01,2013-02-11 10:55:00,
2013-02-11 06:00:00,70.2,61.9,30.09,ESE,112,2.7,3.1,75,0.00,,---,0.00,VWS V14.01,2013-02-11 11:00:00,
2013-02-11 06:05:00,70.2,61.9,30.12,ENE,68,2.2,2.7,75,0.00,,---,0.00,VWS V14.01,2013-02-11 11:05:00,
2013-02-11 06:10:00,70.3,62.0,30.12,East,90,1.1,2.2,75,0.00,,---,0.00,VWS V14.01,2013-02-11 11:10:00,
2013-02-11 06:15:00,70.3,62.0,30.12,East,90,1.1,2.0,75,0.00,,---,0.00,VWS V14.01,2013-02-11 11:15:00,
2013-02-11 06:20:00,70.3,62.0,30.15,ESE,112,0.0,0.0,75,0.00,,---,0.00,VWS V14.01,2013-02-11 11:20:00,
2013-02-11 06:25:00,70.3,62.4,30.15,SE,135,1.6,2.0,76,0.00,,---,0.00,VWS V14.01,2013-02-11 11:25:00,
2013-02-11 06:30:00,70.3,62.4,30.15,East,90,2.5,5.4,76,0.00,,---,0.00,VWS V14.01,2013-02-11 11:30:00,
2013-02-11 06:35:00,70.3,62.4,30.15,SE,135,2.2,2.2,76,0.00,,---,0.00,VWS V14.01,2013-02-11 11:35:00,
2013-02-11 06:40:00,70.2,62.2,30.15,East,90,2.7,2.7,76,0.00,,---,0.00,VWS V14.01,2013-02-11 11:40:00,
2013-02-11 06:45:00,70.3,62.0,30.15,East,90,2.5,2.9,75,0.00,,---,0.00,VWS V14.01,2013-02-11 11:45:00,
2013-02-11 06:50:00,70.5,62.6,30.15,SE,135,2.9,5.4,76,0.00,,---,0.00,VWS V14.01,2013-02-11 11:50:00,
2013-02-11 06:55:00,70.7,62.4,30.15,East,90,4.0,4.0,75,0.00,,---,0.00,VWS V14.01,2013-02-11 11:55:00,
2013-02-11 07:00:00,70.7,62.4,30.15,SE,135,2.7,2.7,75,0.00,,---,0.00,VWS V14.01,2013-02-11 12:00:00,
2013-02-11 07:05:00,70.7,62.4,30.18,East,90,0.9,2.5,75,0.00,,---,0.00,VWS V14.01,2013-02-11 12:05:00,
2013-02-11 07:10:00,70.9,62.2,30.18,SE,135,2.5,2.5,74,0.00,,---,0.00,VWS V14.01,2013-02-11 12:10:00,
2013-02-11 07:15:00,70.9,61.8,30.18,SSE,158,3.6,3.6,73,0.00,,---,0.00,VWS V14.01,2013-02-11 12:15:00,
2013-02-11 07:20:00,71.1,62.0,30.12,SE,135,2.7,2.7,73,0.00,,---,0.00,VWS V14.01,2013-02-11 12:20:00,
2013-02-11 07:25:00,70.9,61.4,30.12,ESE,112,3.6,3.6,72,0.00,,---,0.00,VWS V14.01,2013-02-11 12:25:00,
2013-02-11 07:30:00,71.1,61.6,30.12,SE,135,0.9,573.1,72,0.00,,---,0.00,VWS V14.01,2013-02-11 12:30:00,
2013-02-11 07:35:00,72.0,62.0,30.12,SSE,158,1.3,2.2,71,0.00,,---,0.00,VWS V14.01,2013-02-11 12:35:00,
2013-02-11 07:40:00,72.0,61.7,30.12,SSE,158,4.0,4.0,70,0.00,,---,0.00,VWS V14.01,2013-02-11 12:40:00,
2013-02-11 07:45:00,72.7,62.3,30.12,SSE,158,2.9,3.8,70,0.00,,---,0.00,VWS V14.01,2013-02-11 12:45:00,
2013-02-11 07:50:00,72.9,62.5,30.15,SE,135,2.7,4.9,70,0.00,,---,0.00,VWS V14.01,2013-02-11 12:50:00,
2013-02-11 07:55:00,72.9,62.5,30.15,SSE,158,2.9,3.4,70,0.00,,---,0.00,VWS V14.01,2013-02-11 12:55:00,
2013-02-11 08:00:00,73.4,62.6,30.15,SE,135,1.3,4.3,69,0.00,,---,0.00,VWS V14.01,2013-02-11 13:00:00,
2013-02-11 08:05:00,73.8,63.0,30.15,East,90,2.7,2.9,69,0.00,,---,0.00,VWS V14.01,2013-02-11 13:05:00,
2013-02-11 08:10:00,73.8,62.1,30.15,SE,135,4.5,4.5,67,0.00,,---,0.00,VWS V14.01,2013-02-11 13:10:00,
2013-02-11 08:15:00,73.9,61.9,30.15,East,90,2.7,3.6,66,0.00,,---,0.00,VWS V14.01,2013-02-11 13:15:00,
2013-02-11 08:20:00,73.9,61.9,30.15,SE,135,2.9,4.3,66,0.00,,---,0.00,VWS V14.01,2013-02-11 13:20:00,
2013-02-11 08:25:00,73.9,61.0,30.15,SE,135,4.3,5.4,64,0.00,,---,0.00,VWS V14.01,2013-02-11 13:25:00,
2013-02-11 08:30:00,73.9,60.6,30.15,SSE,158,8.7,8.7,63,0.00,,---,0.00,VWS V14.01,2013-02-11 13:30:00,
2013-02-11 08:35:00,74.1,60.7,30.15,East,90,2.9,3.6,63,0.00,,---,0.00,VWS V14.01,2013-02-11 13:35:00,
2013-02-11 08:40:00,74.3,60.5,30.15,SSE,158,8.1,8.1,62,0.00,,---,0.00,VWS V14.01,2013-02-11 13:40:00,
2013-02-11 08:45:00,74.5,60.2,30.15,East,90,4.0,6.0,61,0.00,,---,0.00,VWS V14.01,2013-02-11 13:45:00,
2013-02-11 08:50:00,74.5,60.2,30.15,ESE,112,3.6,8.7,61,0.00,,---,0.00,VWS V14.01,2013-02-11 13:50:00,
2013-02-11 08:55:00,74.8,60.5,30.15,SSW,202,3.8,6.9,61,0.00,,---,0.00,VWS V14.01,2013-02-11 13:55:00,
2013-02-11 09:00:00,75.2,60.4,30.15,South,180,9.4,9.4,60,0.00,,---,0.00,VWS V14.01,2013-02-11 14:00:00,
2013-02-11 09:05:00,75.4,60.1,30.18,ESE,112,4.9,5.8,59,0.00,,---,0.00,VWS V14.01,2013-02-11 14:05:00,
2013-02-11 09:10:00,75.7,60.4,30.18,SSE,158,4.9,10.5,59,0.00,,---,0.00,VWS V14.01,2013-02-11 14:10:00,
2013-02-11 09:15:00,76.5,60.1,30.18,SE,135,3.8,5.8,57,0.00,,---,0.00,VWS V14.01,2013-02-11 14:15:00,
2013-02-11 09:20:00,76.3,60.0,30.18,East,90,3.6,7.8,57,0.00,,---,0.00,VWS V14.01,2013-02-11 14:20:00,
2013-02-11 09:25:00,77.2,60.3,30.18,ENE,68,7.4,7.4,56,0.00,,---,0.00,VWS V14.01,2013-02-11 14:25:00,
2013-02-11 09:30:00,77.4,60.0,30.18,East,90,6.0,6.0,55,0.00,,---,0.00,VWS V14.01,2013-02-11 14:30:00,
2013-02-11 09:35:00,77.5,60.6,30.18,East,90,2.5,4.9,56,0.00,,---,0.00,VWS V14.01,2013-02-11 14:35:00,
2013-02-11 09:40:00,78.4,61.0,30.18,East,90,2.7,3.6,55,0.00,,---,0.00,VWS V14.01,2013-02-11 14:40:00,
2013-02-11 09:45:00,79.0,60.9,30.18,SSE,158,3.8,6.5,54,0.00,,---,0.00,VWS V14.01,2013-02-11 14:45:00,
2013-02-11 09:50:00,79.0,61.5,30.18,East,90,3.8,4.9,55,0.00,,---,0.00,VWS V14.01,2013-02-11 14:50:00,
2013-02-11 09:55:00,79.9,61.2,30.18,ESE,112,3.1,6.5,53,0.00,,---,0.00,VWS V14.01,2013-02-11 14:55:00,
2013-02-11 10:00:00,79.9,60.7,30.18,South,180,7.4,7.4,52,0.00,,---,0.00,VWS V14.01,2013-02-11 15:00:00,
2013-02-11 10:05:00,79.5,60.9,30.18,ENE,68,3.1,6.3,53,0.00,,---,0.00,VWS V14.01,2013-02-11 15:05:00,
2013-02-11 10:10:00,80.4,61.7,30.18,SSE,158,6.0,6.3,53,0.00,,---,0.00,VWS V14.01,2013-02-11 15:10:00,
2013-02-11 10:15:00,80.1,59.8,30.18,SSE,158,6.5,6.5,50,0.00,,---,0.00,VWS V14.01,2013-02-11 15:15:00,
2013-02-11 10:20:00,81.0,60.0,30.18,SSW,202,4.0,11.0,49,0.00,,---,0.00,VWS V14.01,2013-02-11 15:20:00,
2013-02-11 10:25:00,81.0,60.0,30.18,South,180,6.5,6.5,49,0.00,,---,0.00,VWS V14.01,2013-02-11 15:25:00,
2013-02-11 10:30:00,81.0,59.4,30.18,SE,135,5.4,13.0,48,0.00,,---,0.00,VWS V14.01,2013-02-11 15:30:00,
2013-02-11 10:35:00,81.0,58.9,30.18,South,180,10.7,10.7,47,0.00,,---,0.00,VWS V14.01,2013-02-11 15:35:00,
2013-02-11 10:40:00,81.3,60.3,30.18,SW,225,10.7,10.7,49,0.00,,---,0.00,VWS V14.01,2013-02-11 15:40:00,
2013-02-11 10:45:00,81.7,60.7,30.18,East,90,10.5,10.5,49,0.00,,---,0.00,VWS V14.01,2013-02-11 15:45:00,
2013-02-11 10:50:00,82.4,60.2,30.18,South,180,6.5,9.8,47,0.00,,---,0.00,VWS V14.01,2013-02-11 15:50:00,
2013-02-11 10:55:00,82.8,59.9,30.18,SE,135,5.6,6.5,46,0.00,,---,0.00,VWS V14.01,2013-02-11 15:55:00,
2013-02-11 11:00:00,82.0,59.8,30.18,SSE,158,4.0,9.6,47,0.00,,---,0.00,VWS V14.01,2013-02-11 16:00:00,
2013-02-11 11:05:00,81.9,59.7,30.15,East,90,5.4,5.6,47,0.00,,---,0.00,VWS V14.01,2013-02-11 16:05:00,
2013-02-11 11:10:00,82.4,61.3,30.15,SE,135,4.7,4.7,49,0.00,,---,0.00,VWS V14.01,2013-02-11 16:10:00,
2013-02-11 11:15:00,82.4,60.2,30.15,East,90,3.6,5.8,47,0.00,,---,0.00,VWS V14.01,2013-02-11 16:15:00,
2013-02-11 11:20:00,82.0,60.4,30.15,South,180,7.8,10.1,48,0.00,,---,0.00,VWS V14.01,2013-02-11 16:20:00,
2013-02-11 11:25:00,82.8,61.1,30.15,SW,225,3.6,10.7,48,0.00,,---,0.00,VWS V14.01,2013-02-11 16:25:00,
2013-02-11 11:30:00,82.2,61.2,30.15,South,180,3.6,7.6,49,0.00,,---,0.00,VWS V14.01,2013-02-11 16:30:00,
2013-02-11 11:35:00,82.6,60.9,30.15,ESE,112,5.8,10.3,48,0.00,,---,0.00,VWS V14.01,2013-02-11 16:35:00,
2013-02-11 11:40:00,84.2,61.8,30.15,SE,135,6.5,9.0,47,0.00,,---,0.00,VWS V14.01,2013-02-11 16:40:00,
2013-02-11 11:45:00,83.7,61.9,30.15,East,90,4.3,6.5,48,0.00,,---,0.00,VWS V14.01,2013-02-11 16:45:00,
2013-02-11 11:50:00,82.4,60.2,30.15,East,90,6.0,6.0,47,0.00,,---,0.00,VWS V14.01,2013-02-11 16:50:00,
2013-02-11 11:55:00,82.4,60.2,30.15,SSE,158,10.5,10.5,47,0.00,,---,0.00,VWS V14.01,2013-02-11 16:55:00,
2013-02-11 12:00:00,82.8,61.1,30.15,South,180,3.4,6.3,48,0.00,,---,0.00,VWS V14.01,2013-02-11 17:00:00,
2013-02-11 12:05:00,80.6,59.7,30.15,South,180,8.1,8.1,49,0.00,,---,0.00,VWS V14.01,2013-02-11 17:05:00,
2013-02-11 12:10:00,80.1,60.9,30.15,SSE,158,2.5,5.4,52,0.00,,---,0.00,VWS V14.01,2013-02-11 17:10:00,
2013-02-11 12:15:00,79.7,61.1,30.15,ESE,112,6.0,6.0,53,0.00,,---,0.00,VWS V14.01,2013-02-11 17:15:00,
2013-02-11 12:20:00,80.1,61.4,30.18,ESE,112,6.5,6.5,53,0.00,,---,0.00,VWS V14.01,2013-02-11 17:20:00,
2013-02-11 12:25:00,79.5,62.5,30.18,ESE,112,3.4,5.8,56,0.00,,---,0.00,VWS V14.01,2013-02-11 17:25:00,
2013-02-11 12:30:00,79.3,61.8,30.18,SSE,158,3.6,4.3,55,0.00,,---,0.00,VWS V14.01,2013-02-11 17:30:00,
2013-02-11 12:35:00,78.6,61.6,30.15,South,180,3.8,5.8,56,0.00,,---,0.00,VWS V14.01,2013-02-11 17:35:00,
2013-02-11 12:40:00,78.8,61.8,30.15,East,90,2.9,3.4,56,0.00,,---,0.00,VWS V14.01,2013-02-11 17:40:00,
2013-02-11 12:45:00,79.0,62.0,30.15,ESE,112,2.7,2.7,56,0.00,,---,0.00,VWS V14.01,2013-02-11 17:45:00,
2013-02-11 12:50:00,79.3,62.8,30.15,SSE,158,6.0,12.1,57,0.00,,---,0.00,VWS V14.01,2013-02-11 17:50:00,
2013-02-11 12:55:00,79.3,62.8,30.15,SSE,158,8.7,8.7,57,0.00,,---,0.00,VWS V14.01,2013-02-11 17:55:00,
2013-02-11 13:00:00,79.2,62.1,30.15,NE,45,3.1,7.2,56,0.00,,---,0.00,VWS V14.01,2013-02-11 18:00:00,
2013-02-11 13:05:00,79.0,62.5,30.12,South,180,9.2,11.0,57,0.00,,---,0.00,VWS V14.01,2013-02-11 18:05:00,
2013-02-11 13:10:00,79.9,62.8,30.12,SSE,158,4.3,5.8,56,0.00,,---,0.00,VWS V14.01,2013-02-11 18:10:00,
2013-02-11 13:15:00,80.1,63.0,30.12,South,180,7.4,9.8,56,0.00,,---,0.00,VWS V14.01,2013-02-11 18:15:00,
2013-02-11 13:20:00,80.8,63.1,30.12,South,180,10.3,13.0,55,0.00,,---,0.00,VWS V14.01,2013-02-11 18:20:00,
2013-02-11 13:25:00,80.8,62.6,30.12,SW,225,7.8,7.8,54,0.00,,---,0.00,VWS V14.01,2013-02-11 18:25:00,
2013-02-11 13:30:00,79.9,62.3,30.12,SSE,158,8.7,8.7,55,0.00,,---,0.00,VWS V14.01,2013-02-11 18:30:00,
2013-02-11 13:35:00,79.5,62.5,30.12,East,90,4.9,4.9,56,0.00,,---,0.00,VWS V14.01,2013-02-11 18:35:00,
2013-02-11 13:40:00,80.2,63.1,30.09,ESE,112,5.8,7.4,56,0.00,,---,0.00,VWS V14.01,2013-02-11 18:40:00,
2013-02-11 13:45:00,80.2,62.6,30.09,East,90,6.5,10.5,55,0.00,,---,0.00,VWS V14.01,2013-02-11 18:45:00,
2013-02-11 13:50:00,79.3,62.3,30.09,East,90,2.9,7.8,56,0.00,,---,0.00,VWS V14.01,2013-02-11 18:50:00,
2013-02-11 13:55:00,79.3,62.8,30.09,SSE,158,6.5,10.3,57,0.00,,---,0.00,VWS V14.01,2013-02-11 18:55:00,
2013-02-11 14:00:00,80.2,63.1,30.09,ENE,68,6.0,6.0,56,0.00,,---,0.00,VWS V14.01,2013-02-11 19:00:00,
2013-02-11 14:05:00,79.0,62.0,30.09,East,90,6.3,8.5,56,0.00,,---,0.00,VWS V14.01,2013-02-11 19:05:00,
2013-02-11 14:10:00,78.3,62.8,30.09,South,180,4.0,5.8,59,0.00,,---,0.00,VWS V14.01,2013-02-11 19:10:00,
2013-02-11 14:15:00,79.0,63.0,30.09,SW,225,6.0,15.2,58,0.00,,---,0.00,VWS V14.01,2013-02-11 19:15:00,
2013-02-11 14:20:00,79.0,63.0,30.09,SE,135,4.3,7.8,58,0.00,,---,0.00,VWS V14.01,2013-02-11 19:20:00,
2013-02-11 14:25:00,78.3,62.8,30.09,East,90,4.5,4.5,59,0.00,,---,0.00,VWS V14.01,2013-02-11 19:25:00,
2013-02-11 14:30:00,78.1,62.6,30.09,SE,135,8.1,8.1,59,0.00,,---,0.00,VWS V14.01,2013-02-11 19:30:00,
2013-02-11 14:35:00,78.3,62.8,30.09,SE,135,4.3,4.3,59,0.00,,---,0.00,VWS V14.01,2013-02-11 19:35:00,
2013-02-11 14:40:00,78.6,63.1,30.09,East,90,6.0,8.7,59,0.00,,---,0.00,VWS V14.01,2013-02-11 19:40:00,
2013-02-11 14:45:00,78.4,62.9,30.09,South,180,6.0,6.0,59,0.00,,---,0.00,VWS V14.01,2013-02-11 19:45:00,
2013-02-11 14:50:00,78.3,62.8,30.09,ESE,112,3.6,5.6,59,0.00,,---,0.00,VWS V14.01,2013-02-11 19:50:00,
2013-02-11 14:55:00,77.9,62.4,30.09,South,180,6.5,6.5,59,0.00,,---,0.00,VWS V14.01,2013-02-11 19:55:00,
2013-02-11 15:00:00,78.3,63.2,30.09,SE,135,3.1,4.3,60,0.00,,---,0.00,VWS V14.01,2013-02-11 20:00:00,
2013-02-11 15:05:00,78.6,63.1,30.09,SW,225,3.4,5.4,59,0.00,,---,0.00,VWS V14.01,2013-02-11 20:05:00,
2013-02-11 15:10:00,79.0,63.0,30.09,South,180,6.3,6.5,58,0.00,,---,0.00,VWS V14.01,2013-02-11 20:10:00,
2013-02-11 15:15:00,78.6,62.6,30.09,ESE,112,4.9,5.8,58,0.00,,---,0.00,VWS V14.01,2013-02-11 20:15:00,
2013-02-11 15:20:00,77.7,61.8,30.09,SE,135,4.9,6.0,58,0.00,,---,0.00,VWS V14.01,2013-02-11 20:20:00,
2013-02-11 15:25:00,77.9,62.4,30.09,SE,135,4.3,8.5,59,0.00,,---,0.00,VWS V14.01,2013-02-11 20:25:00,
2013-02-11 15:30:00,78.1,62.6,30.09,East,90,4.9,4.9,59,0.00,,---,0.00,VWS V14.01,2013-02-11 20:30:00,
2013-02-11 15:35:00,78.1,62.6,30.09,SE,135,7.6,7.6,59,0.00,,---,0.00,VWS V14.01,2013-02-11 20:35:00,
2013-02-11 15:40:00,78.3,62.8,30.09,NE,45,2.7,8.5,59,0.00,,---,0.00,VWS V14.01,2013-02-11 20:40:00,
2013-02-11 15:45:00,78.4,62.9,30.09,SE,135,4.7,8.5,59,0.00,,---,0.00,VWS V14.01,2013-02-11 20:45:00,
2013-02-11 15:50:00,78.3,62.3,30.09,East,90,5.6,6.5,58,0.00,,---,0.00,VWS V14.01,2013-02-11 20:50:00,
2013-02-11 15:55:00,78.1,62.1,30.09,ESE,112,6.0,9.8,58,0.00,,---,0.00,VWS V14.01,2013-02-11 20:55:00,
2013-02-11 16:00:00,78.3,62.8,30.09,East,90,6.0,10.3,59,0.00,,---,0.00,VWS V14.01,2013-02-11 21:00:00,
2013-02-11 16:05:00,77.9,62.0,30.06,ESE,112,9.8,12.5,58,0.00,,---,0.00,VWS V14.01,2013-02-11 21:05:00,
2013-02-11 16:10:00,78.1,62.1,30.06,SE,135,5.6,7.6,58,0.00,,---,0.00,VWS V14.01,2013-02-11 21:10:00,
2013-02-11 16:15:00,77.5,62.1,30.06,ESE,112,4.3,4.3,59,0.00,,---,0.00,VWS V14.01,2013-02-11 21:15:00,
2013-02-11 16:20:00,77.7,62.3,30.06,SE,135,2.5,6.0,59,0.00,,---,0.00,VWS V14.01,2013-02-11 21:20:00,
2013-02-11 16:25:00,77.5,62.1,30.06,ENE,68,4.5,4.9,59,0.00,,---,0.00,VWS V14.01,2013-02-11 21:25:00,
2013-02-11 16:30:00,77.4,61.9,30.06,SSW,202,5.6,10.5,59,0.00,,---,0.00,VWS V14.01,2013-02-11 21:30:00,
2013-02-11 16:35:00,77.5,62.1,30.06,ESE,112,2.7,7.6,59,0.00,,---,0.00,VWS V14.01,2013-02-11 21:35:00,
2013-02-11 16:40:00,77.5,62.1,30.06,SSE,158,3.4,4.3,59,0.00,,---,0.00,VWS V14.01,2013-02-11 21:40:00,
2013-02-11 16:45:00,77.2,61.3,30.06,SE,135,8.7,8.7,58,0.00,,---,0.00,VWS V14.01,2013-02-11 21:45:00,
2013-02-11 16:50:00,77.2,62.2,30.06,East,90,5.6,5.6,60,0.00,,---,0.00,VWS V14.01,2013-02-11 21:50:00,
2013-02-11 16:55:00,77.0,62.1,30.06,SE,135,5.4,5.4,60,0.00,,---,0.00,VWS V14.01,2013-02-11 21:55:00,
2013-02-11 17:00:00,77.0,62.1,30.06,South,180,5.8,5.8,60,0.00,,---,0.00,VWS V14.01,2013-02-11 22:00:00,
2013-02-11 17:05:00,76.8,61.9,30.06,South,180,8.5,8.5,60,0.00,,---,0.00,VWS V14.01,2013-02-11 22:05:00,
2013-02-11 17:10:00,76.8,62.4,30.06,ESE,112,3.4,15.4,61,0.00,,---,0.00,VWS V14.01,2013-02-11 22:10:00,
2013-02-11 17:15:00,76.6,62.2,30.06,SSE,158,8.5,9.6,61,0.00,,---,0.00,VWS V14.01,2013-02-11 22:15:00,
2013-02-11 17:20:00,76.5,61.6,30.06,South,180,5.6,5.6,60,0.00,,---,0.00,VWS V14.01,2013-02-11 22:20:00,
2013-02-11 17:25:00,76.3,61.9,30.06,SSW,202,4.3,6.3,61,0.00,,---,0.00,VWS V14.01,2013-02-11 22:25:00,
2013-02-11 17:30:00,76.1,62.2,30.06,SE,135,3.6,4.9,62,0.00,,---,0.00,VWS V14.01,2013-02-11 22:30:00,
2013-02-11 17:35:00,75.7,61.8,30.06,ENE,68,8.5,8.5,62,0.00,,---,0.00,VWS V14.01,2013-02-11 22:35:00,
2013-02-11 17:40:00,75.6,61.6,30.06,South,180,5.8,6.7,62,0.00,,---,0.00,VWS V14.01,2013-02-11 22:40:00,
2013-02-11 17:45:00,75.4,61.5,30.06,SSE,158,8.1,8.7,62,0.00,,---,0.00,VWS V14.01,2013-02-11 22:45:00,
2013-02-11 17:50:00,75.2,61.8,30.03,SSE,158,8.1,8.5,63,0.00,,---,0.00,VWS V14.01,2013-02-11 22:50:00,
2013-02-11 17:55:00,75.0,62.5,30.03,SE,135,7.2,7.2,65,0.00,,---,0.00,VWS V14.01,2013-02-11 22:55:00,
2013-02-11 18:00:00,74.7,62.6,30.03,SE,135,3.6,6.9,66,0.00,,---,0.00,VWS V14.01,2013-02-11 23:00:00,
2013-02-11 18:05:00,74.5,62.4,30.06,ESE,112,3.1,6.3,66,0.00,,---,0.00,VWS V14.01,2013-02-11 23:05:00,
2013-02-11 18:10:00,74.3,62.6,30.06,SE,135,9.8,10.1,67,0.00,,---,0.00,VWS V14.01,2013-02-11 23:10:00,
2013-02-11 18:15:00,74.1,62.9,30.06,SE,135,6.5,6.5,68,0.00,,---,0.00,VWS V14.01,2013-02-11 23:15:00,
2013-02-11 18:20:00,73.9,63.1,30.06,SE,135,9.4,9.4,69,0.00,,---,0.00,VWS V14.01,2013-02-11 23:20:00,
2013-02-11 18:25:00,73.8,63.0,30.06,South,180,3.8,5.6,69,0.00,,---,0.00,VWS V14.01,2013-02-11 23:25:00,
2013-02-11 18:30:00,73.8,63.0,30.06,South,180,6.5,6.5,69,0.00,,---,0.00,VWS V14.01,2013-02-11 23:30:00,
2013-02-11 18:35:00,73.6,63.2,30.06,ESE,112,7.8,7.8,70,0.00,,---,0.00,VWS V14.01,2013-02-11 23:35:00,
2013-02-11 18:40:00,73.4,63.0,30.06,East,90,5.4,6.0,70,0.00,,---,0.00,VWS V14.01,2013-02-11 23:40:00,
2013-02-11 18:45:00,73.4,63.4,30.06,SW,225,5.6,5.8,71,0.00,,---,0.00,VWS V14.01,2013-02-11 23:45:00,
2013-02-11 18:50:00,73.4,63.4,30.06,SE,135,1.6,1.6,71,0.00,,---,0.00,VWS V14.01,2013-02-11 23:50:00,
2013-02-11 18:55:00,73.2,63.7,30.06,South,180,4.9,5.8,72,0.00,,---,0.00,VWS V14.01,2013-02-11 23:55:00,
2013-02-11 19:00:00,73.2,63.7,30.06,SSE,158,3.6,5.4,72,0.00,,---,0.00,VWS V14.01,2013-02-12 00:00:00,
2013-02-11 19:05:00,73.2,64.1,30.06,SE,135,2.5,4.7,73,0.00,,---,0.00,VWS V14.01,2013-02-12 00:05:00,
2013-02-11 19:10:00,73.2,64.1,30.06,SSE,158,3.8,6.0,73,0.00,,---,0.00,VWS V14.01,2013-02-12 00:10:00,
2013-02-11 19:15:00,73.2,64.1,30.06,SE,135,3.1,4.9,73,0.00,,---,0.00,VWS V14.01,2013-02-12 00:15:00,
2013-02-11 19:20:00,73.2,64.1,30.06,North,0,2.5,2.9,73,0.00,,---,0.00,VWS V14.01,2013-02-12 00:20:00,
2013-02-11 19:25:00,73.0,63.9,30.06,South,180,1.6,1.6,73,0.00,,---,0.00,VWS V14.01,2013-02-12 00:25:00,
2013-02-11 19:30:00,73.0,63.9,30.06,South,180,8.5,8.5,73,0.00,,---,0.00,VWS V14.01,2013-02-12 00:30:00,
2013-02-11 19:35:00,73.0,63.9,30.06,East,90,2.5,2.7,73,0.00,,---,0.00,VWS V14.01,2013-02-12 00:35:00,
2013-02-11 19:40:00,73.0,63.9,30.06,SSE,158,5.4,8.1,73,0.00,,---,0.00,VWS V14.01,2013-02-12 00:40:00,
2013-02-11 19:45:00,73.0,63.9,30.06,SE,135,5.6,7.4,73,0.00,,---,0.00,VWS V14.01,2013-02-12 00:45:00,
2013-02-11 19:50:00,72.9,64.1,30.09,SSE,158,1.6,2.0,74,0.00,,---,0.00,VWS V14.01,2013-02-12 00:50:00,
2013-02-11 19:55:00,72.9,64.1,30.09,South,180,2.5,3.1,74,0.00,,---,0.00,VWS V14.01,2013-02-12 00:55:00,
2013-02-11 20:00:00,72.9,64.1,30.09,East,90,3.1,4.9,74,0.00,,---,0.00,VWS V14.01,2013-02-12 01:00:00,
2013-02-11 20:05:00,72.9,64.1,30.09,SE,135,2.7,5.6,74,0.00,,---,0.00,VWS V14.01,2013-02-12 01:05:00,
2013-02-11 20:10:00,72.9,64.5,30.09,East,90,2.5,3.4,75,0.00,,---,0.00,VWS V14.01,2013-02-12 01:10:00,
2013-02-11 20:15:00,72.9,64.5,30.09,South,180,2.7,4.7,75,0.00,,---,0.00,VWS V14.01,2013-02-12 01:15:00,
2013-02-11 20:20:00,72.9,64.9,30.09,SSE,158,2.9,4.7,76,0.00,,---,0.00,VWS V14.01,2013-02-12 01:20:00,
2013-02-11 20:25:00,72.9,64.9,30.09,South,180,3.8,4.0,76,0.00,,---,0.00,VWS V14.01,2013-02-12 01:25:00,
2013-02-11 20:30:00,72.9,64.9,30.09,East,90,2.7,7.8,76,0.00,,---,0.00,VWS V14.01,2013-02-12 01:30:00,
2013-02-11 20:35:00,72.9,64.9,30.09,East,90,2.0,4.7,76,0.00,,---,0.00,VWS V14.01,2013-02-12 01:35:00,
2013-02-11 20:40:00,72.9,64.9,30.09,SE,135,3.6,3.6,76,0.00,,---,0.00,VWS V14.01,2013-02-12 01:40:00,
2013-02-11 20:45:00,72.9,64.9,30.09,SSE,158,1.6,3.4,76,0.00,,---,0.00,VWS V14.01,2013-02-12 01:45:00,
2013-02-11 20:50:00,72.9,65.2,30.09,SSE,158,2.7,4.7,77,0.00,,---,0.00,VWS V14.01,2013-02-12 01:50:00,
2013-02-11 20:55:00,72.7,65.1,30.09,SSE,158,1.1,4.9,77,0.00,,---,0.00,VWS V14.01,2013-02-12 01:55:00,
2013-02-11 20:59:00,72.7,65.1,30.09,ESE,112,4.3,5.8,77,0.00,,---,0.00,VWS V14.01,2013-02-12 01:59:00,
2013-02-11 21:04:00,72.7,65.1,30.09,South,180,3.4,5.4,77,0.00,,---,0.00,VWS V14.01,2013-02-12 02:04:00,
2013-02-11 21:09:00,72.7,65.1,30.09,SE,135,2.5,3.1,77,0.00,,---,0.00,VWS V14.01,2013-02-12 02:09:00,
2013-02-11 21:14:00,72.7,65.1,30.09,SSE,158,3.8,3.8,77,0.00,,---,0.00,VWS V14.01,2013-02-12 02:14:00,
2013-02-11 21:19:00,72.7,65.1,30.09,SSE,158,2.2,2.7,77,0.00,,---,0.00,VWS V14.01,2013-02-12 02:19:00,
2013-02-11 21:25:00,72.7,65.1,30.09,ESE,112,4.0,4.0,77,0.00,,---,0.00,VWS V14.01,2013-02-12 02:25:00,
2013-02-11 21:30:00,72.7,65.1,30.09,South,180,2.7,6.3,77,0.00,,---,0.00,VWS V14.01,2013-02-12 02:30:00,
2013-02-11 21:35:00,72.7,64.7,30.09,SE,135,3.8,7.8,76,0.00,,---,0.00,VWS V14.01,2013-02-12 02:35:00,
2013-02-11 21:39:00,72.7,64.7,30.09,SE,135,3.8,4.7,76,0.00,,---,0.00,VWS V14.01,2013-02-12 02:39:00,
2013-02-11 21:45:00,72.7,64.7,30.09,SSE,158,2.7,3.6,76,0.00,,---,0.00,VWS V14.01,2013-02-12 02:45:00,
2013-02-11 21:50:00,72.7,64.7,30.09,ESE,112,3.1,4.5,76,0.00,,---,0.00,VWS V14.01,2013-02-12 02:50:00,
2013-02-11 21:55:00,72.7,64.7,30.09,SSE,158,5.8,5.8,76,0.00,,---,0.00,VWS V14.01,2013-02-12 02:55:00,
2013-02-11 22:00:00,72.7,64.7,30.09,SSE,158,4.3,4.3,76,0.00,,---,0.00,VWS V14.01,2013-02-12 03:00:00,
2013-02-11 22:05:00,72.7,64.7,30.09,ESE,112,3.4,6.0,76,0.00,,---,0.00,VWS V14.01,2013-02-12 03:05:00,
2013-02-11 22:10:00,72.7,64.7,30.09,SSE,158,2.0,5.4,76,0.00,,---,0.00,VWS V14.01,2013-02-12 03:10:00,
2013-02-11 22:15:00,72.7,64.7,30.09,SE,135,3.8,4.7,76,0.00,,---,0.00,VWS V14.01,2013-02-12 03:15:00,
2013-02-11 22:20:00,72.7,64.7,30.09,South,180,3.6,3.6,76,0.00,,---,0.00,VWS V14.01,2013-02-12 03:20:00,
2013-02-11 22:25:00,72.7,64.7,30.09,South,180,3.6,3.6,76,0.00,,---,0.00,VWS V14.01,2013-02-12 03:25:00,
2013-02-11 22:30:00,72.7,64.7,30.09,ESE,112,3.1,3.8,76,0.00,,---,0.00,VWS V14.01,2013-02-12 03:30:00,
2013-02-11 22:35:00,72.7,64.7,30.09,SE,135,4.3,4.3,76,0.00,,---,0.00,VWS V14.01,2013-02-12 03:35:00,
2013-02-11 22:40:00,72.7,64.7,30.09,ENE,68,1.6,2.0,76,0.00,,---,0.00,VWS V14.01,2013-02-12 03:40:00,
2013-02-11 22:45:00,72.7,64.7,30.09,South,180,3.4,5.8,76,0.00,,---,0.00,VWS V14.01,2013-02-12 03:45:00,
2013-02-11 22:50:00,72.7,64.3,30.09,South,180,3.6,3.6,75,0.00,,---,0.00,VWS V14.01,2013-02-12 03:50:00,
2013-02-11 22:55:00,72.7,64.3,30.09,East,90,3.4,6.3,75,0.00,,---,0.00,VWS V14.01,2013-02-12 03:55:00,
2013-02-11 22:59:00,72.7,64.3,30.09,East,90,4.3,6.0,75,0.00,,---,0.00,VWS V14.01,2013-02-12 03:59:00,
2013-02-11 23:04:00,72.7,64.3,30.09,SE,135,3.6,4.0,75,0.00,,---,0.00,VWS V14.01,2013-02-12 04:04:00,
2013-02-11 23:09:00,72.5,64.1,30.09,East,90,3.4,6.9,75,0.00,,---,0.00,VWS V14.01,2013-02-12 04:09:00,
2013-02-11 23:14:00,72.5,64.1,30.09,South,180,4.0,5.4,75,0.00,,---,0.00,VWS V14.01,2013-02-12 04:14:00,
2013-02-11 23:19:00,72.7,64.3,30.09,South,180,2.9,2.9,75,0.00,,---,0.00,VWS V14.01,2013-02-12 04:19:00,
2013-02-11 23:24:00,72.5,64.1,30.09,SE,135,5.4,5.8,75,0.00,,---,0.00,VWS V14.01,2013-02-12 04:24:00,
2013-02-11 23:29:00,72.7,64.7,30.09,East,90,3.6,3.6,76,0.00,,---,0.00,VWS V14.01,2013-02-12 04:29:00,
2013-02-11 23:34:00,72.5,64.5,30.09,ESE,112,1.3,2.5,76,0.00,,---,0.00,VWS V14.01,2013-02-12 04:34:00,
2013-02-11 23:39:00,72.5,64.5,30.09,ESE,112,4.0,4.0,76,0.00,,---,0.00,VWS V14.01,2013-02-12 04:39:00,
2013-02-11 23:44:00,72.5,64.5,30.09,SE,135,4.3,4.3,76,0.00,,---,0.00,VWS V14.01,2013-02-12 04:44:00,
2013-02-11 23:49:00,72.5,64.5,30.09,SE,135,3.1,3.6,76,0.00,,---,0.00,VWS V14.01,2013-02-12 04:49:00,
2013-02-11 23:54:00,72.3,64.3,30.09,SSE,158,1.3,6.9,76,0.00,,---,0.00,VWS V14.01,2013-02-12 04:54:00,
2013-02-11 23:59:00,72.3,64.3,30.09,SE,135,4.3,5.6,76,0.00,,---,0.00,VWS V14.01,2013-02-12 04:59:00,